Location: Quebec
(46.8000°N, 71.2500°W)
Time: 08:35:27
(UTC-04:00)

Tiangong 1 - Pass Details

Date: 07 October 2017
Orbit: 293 x 320 km, 42.8° (Epoch: 20 October)

Event Time Altitude Azimuth Distance (km) Brightness Sun altitude
Rises 20:22:40 0° 254° (WSW) 2,027 5.6 -22.9°
Reaches altitude 10° 20:24:45 10° 245° (WSW) 1,193 4.2 -23.2°
Enters shadow 20:25:10 13° 240° (WSW) 1,033 3.7 -23.3°
